Weather History for Reno - Stead, NV

Change the Weather History Date:

Thursday, July 4, 2013

  Actual Average (KRNO) Record (KRNO)
Temperature  
Mean Temperature 72 °F 73 °F  
Max Temperature 86 °F 90 °F 106 °F (2007)
Min Temperature 59 °F 56 °F 35 °F (1963)
Degree Days  
Heating Degree Days 0 0  
Month to date heating degree days 0  
Since 1 June heating degree days 56  
Since 1 July heating degree days 0  
Cooling Degree Days 8 8  
Month to date cooling degree days 32  
Year to date cooling degree days 205  
Since 1 June cooling degree days 168  
Growing Degree Days 22 (Base 50)    
Moisture  
Dew Point 52 °F    
Average Humidity 48    
Maximum Humidity 77    
Minimum Humidity 27    
Precipitation  
Precipitation 0.38 in 0.00 in 0.04 in (1955)
Month to date precipitation 0.02  
Year to date precipitation 4.30  
Snow  
Snow 0.00 in 0.00 in 0.00 in ()
Month to date snowfall 0.0  
Since 1 June snowfall T  
Since 1 July snowfall 0.0  
Snow Depth -    
Sea Level Pressure  
Sea Level Pressure 30.07 in    
Wind  
Wind Speed 5 mph (North)    
Max Wind Speed 17 mph    
Max Gust Speed 28 mph    
Visibility 10 miles    
Events Rain    
T = Trace of Precipitation, MM = Missing Value Source: NWS Daily Summary

Daily Weather History Graph

Daily Weather History Graph

Search for Another Location

Airport:

Trip Planner

Search our weather history database for the weather conditions in past years. The results will help you decide how hot, cold, wet, or windy it might be!

Date:

Astronomy

Jul. 04, 2013 Rise Set
Actual Time 5:37 AM PDT 8:30 PM PDT
Civil Twilight 5:04 AM PDT 9:02 PM PDT
Nautical Twilight 4:24 AM PDT 9:43 PM PDT
Astronomical Twilight 3:37 AM PDT 10:30 PM PDT
Moon 2:57 AM PDT (7/4) 5:39 PM PDT (7/4)
Length of Visible Light 15h 57m
Length of Day
14h 53m
Waning Crescent, 11% of the Moon is Illuminated
Jul 4
Waning Crescent
Jul 8
New
Jul 15
First Quarter
Jul 22
Full
Jul 29
Last Quarter

Hourly Weather History & Observations

Time (PDT) Temp. Heat Index Dew Point Humidity Pressure Visibility Wind Dir Wind Speed Gust Speed Precip Events Conditions
12:15 AM 71.6 °F - 50.0 °F 46% 30.16 in 10.0 mi North 4.6 mph - N/A   Clear
12:35 AM 71.6 °F - 50.0 °F 46% 30.16 in 10.0 mi NW 4.6 mph - N/A   Clear
12:55 AM 71.6 °F - 50.0 °F 46% 30.16 in 10.0 mi NW 8.1 mph - N/A   Clear
1:15 AM 71.6 °F - 50.0 °F 46% 30.16 in 10.0 mi North 5.8 mph - N/A   Clear
1:35 AM 71.6 °F - 50.0 °F 46% 30.16 in 10.0 mi North - - N/A   Clear
1:55 AM 68.0 °F - 50.0 °F 52% 30.16 in 10.0 mi Calm Calm - N/A   Clear
2:15 AM 66.2 °F - 50.0 °F 56% 30.16 in 10.0 mi WNW 3.5 mph - N/A   Clear
2:35 AM 64.4 °F - 50.0 °F 59% 30.16 in 10.0 mi NW 3.5 mph - N/A   Clear
2:55 AM 64.4 °F - 50.0 °F 59% 30.15 in 10.0 mi NNW 5.8 mph - N/A   Clear
3:15 AM 64.4 °F - 50.0 °F 59% 30.15 in 10.0 mi NE 8.1 mph - N/A   Clear
3:35 AM 66.2 °F - 50.0 °F 56% 30.14 in 10.0 mi ENE 6.9 mph - N/A   Clear
3:55 AM 62.6 °F - 50.0 °F 63% 30.14 in 10.0 mi North 5.8 mph - N/A   Clear
4:15 AM 62.6 °F - 51.8 °F 68% 30.14 in 10.0 mi NW 5.8 mph - N/A   Clear
4:35 AM 62.6 °F - 50.0 °F 63% 30.14 in 10.0 mi Calm Calm - N/A   Clear
4:55 AM 62.6 °F - 50.0 °F 63% 30.13 in 10.0 mi Calm Calm - N/A   Clear
5:15 AM 64.4 °F - 50.0 °F 59% 30.13 in 10.0 mi NE 3.5 mph - N/A   Clear
5:35 AM 59.0 °F - 51.8 °F 77% 30.13 in 10.0 mi Calm Calm - N/A   Clear
5:55 AM 59.0 °F - 50.0 °F 72% 30.13 in 10.0 mi North 3.5 mph - N/A   Clear
6:15 AM 59.0 °F - 50.0 °F 72% 30.14 in 10.0 mi Calm Calm - N/A   Clear
6:35 AM 62.6 °F - 50.0 °F 63% 30.14 in 10.0 mi NNE 3.5 mph - N/A   Clear
6:55 AM 64.4 °F - 51.8 °F 64% 30.13 in 10.0 mi North 3.5 mph - N/A   Clear
7:15 AM 66.2 °F - 50.0 °F 56% 30.13 in 10.0 mi Calm Calm - N/A   Clear
7:35 AM 66.2 °F - 53.6 °F 64% 30.13 in 10.0 mi South 3.5 mph - N/A   Clear
7:55 AM 68.0 °F - 53.6 °F 60% 30.12 in 10.0 mi Calm Calm - N/A   Clear
8:15 AM 71.6 °F - 51.8 °F 50% 30.13 in 10.0 mi Calm Calm - N/A   Clear
8:35 AM 73.4 °F - 50.0 °F 44% 30.12 in 10.0 mi Calm Calm - N/A   Clear
8:55 AM 73.4 °F - 50.0 °F 44% 30.12 in 10.0 mi Calm Calm - N/A   Clear
9:15 AM 75.2 °F - 50.0 °F 41% 30.12 in 10.0 mi South 3.5 mph - N/A   Clear
9:35 AM 77.0 °F - 50.0 °F 39% 30.11 in 10.0 mi Calm Calm - N/A   Clear
9:55 AM 78.8 °F - 50.0 °F 36% 30.11 in 10.0 mi East 3.5 mph - N/A   Clear
10:15 AM 80.6 °F - 50.0 °F 34% 30.10 in 10.0 mi ENE 8.1 mph - N/A   Clear
10:35 AM 80.6 °F - 48.2 °F 32% 30.10 in 10.0 mi East 4.6 mph - N/A   Clear
10:55 AM 80.6 °F - 48.2 °F 32% 30.10 in 10.0 mi Calm Calm - N/A   Clear
11:15 AM 82.4 °F - 48.2 °F 30% 30.10 in 10.0 mi Calm Calm - N/A   Clear
11:35 AM 82.4 °F - 48.2 °F 30% 30.09 in 10.0 mi ESE 5.8 mph - N/A   Clear
11:55 AM 84.2 °F - 48.2 °F 29% 30.08 in 10.0 mi East 3.5 mph - N/A   Clear
12:15 PM 84.2 °F - 48.2 °F 29% 30.08 in 10.0 mi SE 5.8 mph - N/A   Clear
12:35 PM 82.4 °F - 48.2 °F 30% 30.07 in 10.0 mi Calm Calm - N/A   Clear
12:55 PM 84.2 °F - 48.2 °F 29% 30.06 in 10.0 mi ESE 4.6 mph - N/A   Clear
1:15 PM 86.0 °F - 48.2 °F 27% 30.06 in 10.0 mi ESE 6.9 mph - N/A   Clear
1:35 PM 86.0 °F - 48.2 °F 27% 30.04 in 10.0 mi SE 8.1 mph - N/A   Clear
1:55 PM 86.0 °F - 48.2 °F 27% 30.03 in 10.0 mi SSE 5.8 mph - N/A   Clear
2:15 PM 86.0 °F - 48.2 °F 27% 30.02 in 10.0 mi North 3.5 mph - N/A   Clear
2:35 PM 80.6 °F 80.3 °F 53.6 °F 39% 30.02 in 9.0 mi NW 17.3 mph 27.6 mph N/A Rain Light Rain
2:55 PM 66.2 °F - 57.2 °F 73% 30.06 in 1.8 mi NE 10.4 mph - 0.37 in Rain Heavy Rain
3:15 PM 69.8 °F - 57.2 °F 64% 30.02 in 10.0 mi East 16.1 mph - N/A   Mostly Cloudy
3:35 PM 75.2 °F - 57.2 °F 53% 30.01 in 10.0 mi ENE 10.4 mph - 0.01 in   Partly Cloudy
3:55 PM 77.0 °F - 59.0 °F 54% 30.00 in 10.0 mi WNW 4.6 mph - 0.01 in   Clear
4:15 PM 80.6 °F 81.1 °F 59.0 °F 48% 29.99 in 10.0 mi Calm Calm - N/A   Clear
4:35 PM 82.4 °F 82.0 °F 57.2 °F 42% 29.98 in 10.0 mi Calm Calm - N/A   Clear
4:55 PM 84.2 °F 83.5 °F 57.2 °F 40% 29.98 in 10.0 mi West 5.8 mph - N/A   Clear
5:15 PM 86.0 °F 84.2 °F 53.6 °F 33% 29.98 in 10.0 mi West 16.1 mph 24.2 mph N/A   Clear
5:35 PM 86.0 °F 84.5 °F 55.4 °F 35% 29.97 in 10.0 mi West 17.3 mph - N/A   Clear
5:55 PM 86.0 °F 84.2 °F 53.6 °F 33% 29.97 in 10.0 mi West 13.8 mph 19.6 mph N/A   Clear
6:15 PM 86.0 °F 84.2 °F 53.6 °F 33% 29.97 in 10.0 mi West 12.7 mph 20.7 mph N/A   Clear
6:35 PM 84.2 °F 83.0 °F 55.4 °F 37% 29.97 in 10.0 mi West 15.0 mph 20.7 mph N/A   Clear
6:55 PM 84.2 °F 83.0 °F 55.4 °F 37% 29.97 in 10.0 mi West 16.1 mph 19.6 mph N/A   Clear
7:15 PM 84.2 °F 82.8 °F 53.6 °F 35% 29.99 in 10.0 mi West 13.8 mph - N/A   Clear
7:35 PM 82.4 °F 81.4 °F 53.6 °F 37% 29.99 in 10.0 mi West 13.8 mph - N/A   Clear
7:55 PM 80.6 °F 80.3 °F 53.6 °F 39% 30.00 in 10.0 mi West 12.7 mph - N/A   Clear
8:15 PM 78.8 °F - 53.6 °F 42% 30.00 in 10.0 mi West 8.1 mph - N/A   Clear
8:35 PM 75.2 °F - 53.6 °F 47% 30.00 in 10.0 mi WSW 6.9 mph - N/A   Clear
8:55 PM 77.0 °F - 51.8 °F 41% 30.01 in 10.0 mi South 5.8 mph - N/A   Clear
9:15 PM 77.0 °F - 50.0 °F 39% 30.01 in 10.0 mi SE 4.6 mph - N/A   Clear
9:35 PM 73.4 °F - 53.6 °F 50% 30.01 in 10.0 mi Calm Calm - N/A   Clear
9:55 PM 73.4 °F - 53.6 °F 50% 30.01 in 10.0 mi East 4.6 mph - N/A   Clear
10:15 PM 71.6 °F - 55.4 °F 57% 30.01 in 10.0 mi ENE 3.5 mph - N/A   Clear
10:35 PM 68.0 °F - 55.4 °F 64% 30.01 in 10.0 mi ENE 5.8 mph - N/A   Clear
10:55 PM 71.6 °F - 53.6 °F 53% 30.01 in 10.0 mi East 8.1 mph - N/A   Clear
11:15 PM 68.0 °F - 55.4 °F 64% 30.01 in 10.0 mi NNW 3.5 mph - N/A   Clear
11:35 PM 64.4 °F - 55.4 °F 73% 30.00 in 10.0 mi North 8.1 mph - N/A   Clear
11:55 PM 64.4 °F - 55.4 °F 73% 30.00 in 10.0 mi NNW 4.6 mph - N/A   Clear